Weather Roundup
Issued by NWS Springfield, MO

Home | Current Version | Previous Version | Text Only | Print | Product List | Glossary On
Versions: 1 2 3 4 5 6 7 8 9 10 11 12 13 14 15 16 17 18 19 20 21 22 23 24 25 26 27 28 29 30 31 32 33 34 35 36 37 38 39 40 41 42 43 44 45 46 47 48 49 50
000
NZUS99 KSGF 060707
HRRSGF

HOURLY WEATHER
NATIONAL WEATHER SERVICE SPRINGFIELD MO
200 AM CDT MON JUL 06 2015

......SGF CWA......

CITY           SKY/WX    TMP DP  RH WIND       PRES   REMARKS
SPRINGFIELD    CLEAR     71  68  90 S10       30.00S
JOPLIN         MOCLDY    74  68  81 S14       29.96F
WEST PLAINS    MOCLDY    73  70  90 SW5       30.04S
ROLLA          CLEAR     72  71  97 S10       29.99S
OSAGE BEACH    CLEAR     73  70  88 SE5       29.98S
BRANSON          N/A     72  70  94 CALM      30.03S

......SURROUNDING SGF CWA......

CITY           SKY/WX    TMP DP  RH WIND       PRES   REMARKS
CHANUTE        MOCLDY    77  73  87 SE7       29.93S
PARSONS        MOCLDY    77  72  84 S7        29.94S
COFFEYVILLE    MOCLDY    78  71  79 S8        29.93R
EMPORIA        CLOUDY    79  71  76 S13       29.90R
GROVE OK       PTCLDY    75  72  88 S8        29.98S
ROGERS AR      CLEAR     71  67  87 SE6       30.02S
SILOAM SPRINGS CLEAR     73  66  78 S7        30.02S
HARRISON AR    CLEAR     72  70  93 S7        30.03F
NEAR YELLVILLE CLEAR     72  68  88 S3        30.00S

......KANSAS AND MISSOURI......

CITY           SKY/WX    TMP DP  RH WIND       PRES   REMARKS
KANSAS CTY INT CLOUDY    78  69  73 S13       29.91R
DOWNTOWN KC    CLOUDY    77  69  76 S10       29.91R
COLUMBIA       CLEAR     74  71  91 S8        29.97S
SEDALIA        PTCLDY    74  67  78 S10       29.96S
ST JOSEPH      CLOUDY    81  71  71 S12       29.88R
ST LOUIS       PTCLDY    77  68  73 S6        30.01R
SPIRIT OF STL  CLEAR     74  70  87 S5        29.98S
KIRKSVILLE     CLEAR     74  69  85 S10       29.94F
WICHITA        CLOUDY    81  69  67 S13       29.89F
TOPEKA         MOCLDY    82  73  74 S9        29.88R
OLATHE         CLOUDY    73  68  84 S9        29.93R

......TENNESSEE......

CITY           SKY/WX    TMP DP  RH WIND       PRES   REMARKS
MEMPHIS        PTCLDY    72  67  84 CALM      30.04F
NASHVILLE      CLEAR     71  71 100 S5        30.05F

......ARKANSAS.......

CITY           SKY/WX    TMP DP  RH WIND       PRES   REMARKS
FAYETTEVILLE   CLEAR     73  71  93 S3        30.02S
FT SMITH       CLEAR     74  71  91 NE7       29.99S THUNDER
LITTLE ROCK    CLEAR     70  64  81 S3        30.04R

......OKLAHOMA.......

CITY           SKY/WX    TMP DP  RH WIND       PRES   REMARKS
TULSA          CLOUDY    78  73  84 SE7       29.93S
PONCA CITY     MOCLDY    81  69  67 VRB7      29.91S
MCALESTER      PTCLDY    79  71  76 S6        29.96F
OKLAHOMA CITY  MOCLDY    77  70  79 S10       29.94S

......IOWA............

CITY           SKY/WX    TMP DP  RH WIND       PRES   REMARKS
DES MOINES     CLOUDY    77  71  82 S12       29.85S
QUAD CITIES    CLEAR     69  65  86 VRB3      29.95F FOG

......ILLINOIS........

CITY           SKY/WX    TMP DP  RH WIND       PRES   REMARKS
QUINCY         CLEAR     72  68  87 S8        29.96F FOG
CHICAGO        CLEAR     69  62  78 S7        29.99S




USA.gov is the U.S. government's official web portal to all federal, state and local government web resources and services.